Weather History for Togiak, AK

Change the Weather History Date:

Thursday, October 3, 2013

  Actual Average Record
Temperature  
Mean Temperature 40 °F -  
Max Temperature 53 °F 44 °F 55 °F (2001)
Min Temperature 28 °F 32 °F 24 °F (1998)
Degree Days  
Heating Degree Days 24    
Moisture  
Dew Point 28 °F    
Average Humidity 72    
Maximum Humidity 93    
Minimum Humidity 35    
Precipitation  
Precipitation 0.00 in - - ()
Sea Level Pressure  
Sea Level Pressure 29.63 in    
Wind  
Wind Speed 9 mph (North)    
Max Wind Speed 20 mph    
Max Gust Speed 26 mph    
Visibility 10 miles    
Events      
Averages and records for this station are not official NWS values.
T = Trace of Precipitation, MM = Missing Value Source: NWS Daily Summary

Daily Weather History Graph

Daily Weather History Graph

Search for Another Location

Airport:

Trip Planner

Search our weather history database for the weather conditions in past years. The results will help you decide how hot, cold, wet, or windy it might be!

Date:

Astronomy

Oct. 03, 2013 Rise Set
Actual Time 8:52 AM AKDT 8:07 PM AKDT
Civil Twilight 8:11 AM AKDT 8:47 PM AKDT
Nautical Twilight 7:24 AM AKDT 9:34 PM AKDT
Astronomical Twilight 6:35 AM AKDT 10:23 PM AKDT
Moon 7:28 AM AKDT (10/3) 7:24 PM AKDT (10/3)
Length of Visible Light 12h 35m
Length of Day
11h 15m
Waning Crescent, 2% of the Moon is Illuminated
Oct 3
Waning Crescent
Oct 4
New
Oct 11
First Quarter
Oct 18
Full
Oct 26
Last Quarter

Hourly Weather History & Observations

Time (AKDT) Temp. Windchill Dew Point Humidity Pressure Visibility Wind Dir Wind Speed Gust Speed Precip Events Conditions
12:36 AM 33.8 °F 26.4 °F 28.4 °F 81% 29.65 in 10.0 mi NNE 9.2 mph - N/A   Unknown
12:56 AM 33.8 °F 27.7 °F 28.4 °F 81% 29.65 in 10.0 mi NNE 6.9 mph - N/A   Clear
1:16 AM 30.2 °F 23.4 °F 28.4 °F 93% 29.65 in 10.0 mi NNE 6.9 mph - N/A   Clear
1:36 AM 33.8 °F 27.7 °F 28.4 °F 81% 29.65 in 10.0 mi North 6.9 mph - N/A   Clear
1:56 AM 32.0 °F 24.8 °F 28.4 °F 87% 29.65 in 10.0 mi North 8.1 mph - N/A   Clear
2:16 AM 33.8 °F 25.8 °F 28.4 °F 81% 29.65 in 10.0 mi NNE 10.4 mph - N/A   Clear
2:36 AM 32.0 °F 26.4 °F 28.4 °F 87% 29.65 in 10.0 mi North 5.8 mph - N/A   Clear
2:56 AM 32.0 °F 23.6 °F 28.4 °F 87% 29.64 in 10.0 mi NNE 10.4 mph - N/A   Clear
3:16 AM 33.8 °F 26.4 °F 28.4 °F 81% 29.64 in 10.0 mi North 9.2 mph - N/A   Clear
3:36 AM 33.8 °F 26.4 °F 28.4 °F 81% 29.64 in 10.0 mi North 9.2 mph - N/A   Clear
3:56 AM 33.8 °F 27.0 °F 28.4 °F 81% 29.64 in 10.0 mi NNE 8.1 mph - N/A   Clear
4:16 AM 33.8 °F 27.0 °F 28.4 °F 81% 29.64 in 10.0 mi North 8.1 mph - N/A   Clear
4:36 AM 32.0 °F 25.6 °F 28.4 °F 87% 29.63 in 10.0 mi North 6.9 mph - N/A   Clear
4:56 AM 30.2 °F 22.6 °F 26.6 °F 86% 29.63 in 10.0 mi North 8.1 mph - N/A   Clear
5:16 AM 30.2 °F 21.9 °F 26.6 °F 86% 29.63 in 10.0 mi NNE 9.2 mph - N/A   Clear
5:36 AM 30.2 °F 22.6 °F 26.6 °F 86% 29.63 in 10.0 mi North 8.1 mph - N/A   Clear
5:56 AM 28.4 °F 20.4 °F 26.6 °F 93% 29.64 in 10.0 mi North 8.1 mph - N/A   Clear
6:16 AM 28.4 °F 20.4 °F 26.6 °F 93% 29.63 in 10.0 mi NNE 8.1 mph - N/A   Clear
6:36 AM 30.2 °F 21.9 °F 26.6 °F 86% 29.64 in 10.0 mi NNE 9.2 mph - N/A   Scattered Clouds
6:56 AM 30.2 °F 21.9 °F 26.6 °F 86% 29.64 in 10.0 mi NNE 9.2 mph - N/A   Overcast
7:16 AM 30.2 °F 23.4 °F 26.6 °F 86% 29.64 in 10.0 mi NNE 6.9 mph - N/A   Overcast
7:36 AM 30.2 °F 23.4 °F 26.6 °F 86% 29.63 in 10.0 mi NNE 6.9 mph - N/A   Scattered Clouds
7:56 AM 28.4 °F 21.2 °F 24.8 °F 86% 29.63 in 10.0 mi North 6.9 mph - N/A   Scattered Clouds
8:16 AM 28.4 °F 21.2 °F 26.6 °F 93% 29.63 in 10.0 mi North 6.9 mph - N/A   Mostly Cloudy
8:36 AM 28.4 °F 20.4 °F 24.8 °F 86% 29.64 in 10.0 mi NNE 8.1 mph - N/A   Partly Cloudy
8:56 AM 30.2 °F 21.3 °F 26.6 °F 86% 29.64 in 10.0 mi NNE 10.4 mph - N/A   Clear
9:16 AM 30.2 °F 23.4 °F 26.6 °F 86% 29.64 in 10.0 mi North 6.9 mph - N/A   Partly Cloudy
9:36 AM 30.2 °F 23.4 °F 26.6 °F 86% 29.64 in 10.0 mi North 6.9 mph - N/A   Mostly Cloudy
9:56 AM 32.0 °F 25.6 °F 28.4 °F 87% 29.64 in 10.0 mi North 6.9 mph - N/A   Partly Cloudy
10:16 AM 33.8 °F 28.6 °F 28.4 °F 81% 29.64 in 10.0 mi NNE 5.8 mph - N/A   Partly Cloudy
10:36 AM 35.6 °F 29.9 °F 30.2 °F 81% 29.64 in 10.0 mi North 6.9 mph - N/A   Partly Cloudy
10:56 AM 37.4 °F 32.1 °F 30.2 °F 75% 29.64 in 10.0 mi NNE 6.9 mph - N/A   Clear
11:16 AM 39.2 °F 33.0 °F 30.2 °F 70% 29.64 in 10.0 mi NNE 9.2 mph - N/A   Clear
11:36 AM 41.0 °F 35.2 °F 30.2 °F 65% 29.63 in 10.0 mi NNE 9.2 mph - N/A   Clear
11:56 AM 42.8 °F 38.0 °F 30.2 °F 61% 29.63 in 10.0 mi NNE 8.1 mph - N/A   Partly Cloudy
12:16 PM 44.6 °F 39.7 °F 32.0 °F 61% 29.63 in 10.0 mi NNE 9.2 mph - N/A   Partly Cloudy
12:36 PM 46.4 °F 42.4 °F 30.2 °F 53% 29.62 in 10.0 mi NNE 8.1 mph - N/A   Partly Cloudy
12:56 PM 48.2 °F - 30.2 °F 50% 29.62 in 10.0 mi North 9.2 mph - N/A   Partly Cloudy
1:16 PM 51.8 °F - 28.4 °F 41% 29.62 in 10.0 mi North 11.5 mph - N/A   Clear
1:36 PM 51.8 °F - 28.4 °F 41% 29.62 in 10.0 mi North 11.5 mph - N/A   Clear
1:56 PM 51.8 °F - 28.4 °F 41% 29.62 in 10.0 mi North 10.4 mph - N/A   Clear
2:16 PM 51.8 °F - 28.4 °F 41% 29.61 in 10.0 mi North 10.4 mph - N/A   Clear
2:36 PM 51.8 °F - 28.4 °F 41% 29.60 in 10.0 mi NNW 11.5 mph - N/A   Clear
2:56 PM 51.8 °F - 28.4 °F 41% 29.60 in 10.0 mi North 10.4 mph 17.3 mph N/A   Clear
3:16 PM 53.6 °F - 28.4 °F 38% 29.59 in 10.0 mi NNW 10.4 mph - N/A   Clear
3:36 PM 53.6 °F - 28.4 °F 38% 29.59 in 10.0 mi North 10.4 mph 16.1 mph N/A   Clear
3:56 PM 53.6 °F - 26.6 °F 35% 29.59 in 10.0 mi North 11.5 mph 19.6 mph N/A   Clear
4:16 PM 53.6 °F - 26.6 °F 35% 29.58 in 10.0 mi North 12.7 mph - N/A   Clear
9:36 PM 35.6 °F 24.8 °F 28.4 °F 75% 29.64 in 10.0 mi NW 19.6 mph 26.5 mph N/A   Clear